Content
SEND FEEDBACK

Daily
Averages
Monthly
Summary
United States of America

ST. LOUIS, MISSOURI


Home > North America > United States > Missouri
Elevation: 535 feet     Latitude: 38 45N     Longitude: 090 22W

WEATHER
 
SELECT A DAY
Number of Records: 196,446;   Date Range: 1/1/95 - 8/12/14
 
SHARE

PRINT THIS DATA

[ ← Previous Day ]
WEATHER ALMANAC - JULY 1, 2013
[ Next Day → ]
[ °C ]   °F
We're sorry. There is no daily almanac available for St. Louis, Missouri on July 1, 2013.
WEATHER BY HOUR - JULY 1, 2013
[ °C ]   °F
Local TimeTemperatureDewpointHumidityBarometerVisibilityWind DirectionWind SpeedGust SpeedPrecipitationEventsConditions
1:54 AM66.9 °F61.0 °F81 %29.90 in10.0 miVariable3.5 mphMostly Cloudy
2:54 AM66.9 °F57.0 °F70 %29.90 in10.0 miNNE (20°)3.5 mphMostly Cloudy
3:54 AM66.0 °F55.0 °F68 %29.90 in10.0 miCalmScattered Clouds
4:54 AM66.0 °F53.1 °F63 %29.91 in10.0 miNorth (10°)4.6 mphMostly Cloudy
5:54 AM64.9 °F53.1 °F65 %29.93 in10.0 miNorth (360°)3.5 mphMostly Cloudy
6:54 AM64.9 °F53.1 °F65 %29.94 in10.0 miNNW (340°)4.6 mphMostly Cloudy
7:54 AM66.9 °F54.0 °F63 %29.95 in10.0 miNorth (360°)5.8 mphOvercast
8:54 AM68.0 °F55.0 °F63 %29.97 in10.0 miNorth (10°)8.1 mphMostly Cloudy
9:54 AM69.1 °F55.0 °F61 %29.97 in10.0 miNorth (10°)6.9 mphScattered Clouds
10:54 AM72.0 °F57.9 °F61 %29.96 in10.0 miNorth (350°)8.1 mphMostly Cloudy
11:54 AM75.9 °F57.9 °F54 %29.96 in10.0 miNorth (360°)8.1 mphMostly Cloudy
12:54 PM78.1 °F57.0 °F48 %29.95 in10.0 miNorth (10°)12.7 mph18.4 mphScattered Clouds
1:54 PM80.1 °F54.0 °F40 %29.94 in10.0 miNorth (10°)12.7 mph21.9 mphScattered Clouds
2:54 PM80.1 °F53.1 °F39 %29.94 in10.0 miNorth (10°)15.0 mphMostly Cloudy
3:54 PM80.1 °F53.1 °F39 %29.93 in10.0 miNorth (360°)11.5 mphMostly Cloudy
4:54 PM79.0 °F54.0 °F42 %29.93 in10.0 miNorth (360°)11.5 mphMostly Cloudy
5:54 PM78.1 °F52.0 °F40 %29.93 in10.0 miNorth (360°)9.2 mphMostly Cloudy
6:54 PM78.1 °F52.0 °F40 %29.94 in10.0 miNNE (20°)12.7 mph19.6 mphMostly Cloudy
7:54 PM75.9 °F53.1 °F45 %29.95 in10.0 miNorth (360°)8.1 mphOvercast
8:54 PM75.0 °F53.1 °F46 %29.96 in10.0 miNorth (360°)8.1 mphOvercast
9:54 PM73.0 °F53.1 °F49 %29.96 in10.0 miNorth (360°)6.9 mphClear
10:54 PM72.0 °F52.0 °F49 %29.97 in10.0 miNorth (10°)9.2 mphClear
11:54 PM71.1 °F51.1 °F49 %29.96 in10.0 miNorth (10°)5.8 mphClear
Hourly data recorded from KSUS, located miles away from St. Louis, Missouri







STORIES FROM OUR PARTNERS